Date,TemperatureHighF,TemperatureAvgF,TemperatureLowF,DewpointHighF,DewpointAvgF,DewpointLowF,HumidityHigh,HumidityAvg,HumidityLow,PressureMaxIn,PressureMinIn,WindSpeedMaxMPH,WindSpeedAvgMPH,GustSpeedMaxMPH,PrecipitationSumIn
2013-1-1,17,2,-14,8,-5,-21,84,73,59,30.67,30.24,13,1,13,0.00
2013-1-2,5,-10,-26,-2,-17,-35,84,70,61,30.98,30.67,11,2,11,0.00
2013-1-3,2,-14,-30,-6,-20,-39,83,70,59,31.14,30.98,7,2,7,0.00
2013-1-4,4,-11,-27,-6,-19,-36,77,68,59,31.14,30.89,8,2,8,0.00
2013-1-5,10,-8,-23,-1,-16,-32,74,66,54,31.15,30.96,9,2,9,0.00
2013-1-6,11,-6,-24,1,-14,-32,78,69,61,31.17,30.88,7,0,7,0.00
2013-1-7,18,0,-11,5,-8,-19,78,69,53,30.88,30.56,10,-10,10,0.00
2013-1-8,20,-2,-19,8,-9,-26,80,71,57,30.95,30.60,12,2,12,0.00
2013-1-9,27,2,-16,13,-6,-24,79,69,50,31.10,30.76,10,2,10,0.00
2013-1-10,19,0,-14,9,-6,-21,84,75,59,30.77,30.22,19,1,19,0.00
2013-1-11,26,12,-4,24,1,-16,91,63,42,30.22,29.81,38,15,38,0.00
2013-1-12,9,-7,-22,-5,-16,-32,81,64,47,30.51,30.08,10,2,10,0.00
2013-1-13,5,-11,-28,-5,-19,-37,80,67,55,30.68,30.51,13,4,13,0.00
2013-1-14,12,-5,-18,0,-13,-26,80,68,55,30.66,30.51,15,4,15,0.00
2013-1-15,11,-6,-22,-3,-16,-32,73,63,51,30.93,30.60,13,6,13,0.00
2013-1-16,19,0,-15,4,-9,-22,78,66,48,31.04,30.92,12,3,12,0.00
2013-1-17,24,5,-10,12,-2,-17,82,72,57,31.12,30.92,9,2,9,0.00
2013-1-18,22,2,-10,13,-4,-17,82,75,62,30.95,30.78,11,1,11,0.00
2013-1-19,19,1,-14,10,-5,-21,82,74,61,31.01,30.85,12,1,12,0.00
2013-1-20,23,0,-16,11,-7,-23,81,70,55,30.97,30.77,11,1,11,0.00
2013-1-21,26,3,-13,13,-4,-20,80,71,58,30.94,30.80,12,2,12,0.00
2013-1-22,32,5,-12,13,-4,-20,76,66,38,30.93,30.77,14,2,14,0.00
2013-1-23,26,4,-14,11,-5,-21,82,67,48,30.98,30.87,9,1,9,0.00
2013-1-24,32,14,-4,18,5,-11,84,70,50,30.90,30.58,12,2,12,0.00
2013-1-25,39,23,9,26,16,2,85,75,58,30.63,30.37,11,2,11,0.00
2013-1-26,33,24,8,29,20,4,92,86,76,30.38,29.98,10,0,10,0.00
2013-1-27,42,31,24,35,26,19,94,83,53,29.98,29.85,28,2,28,0.02
2013-1-28,41,31,20,33,24,13,88,78,61,29.85,29.58,32,12,32,0.00
2013-1-29,24,18,10,13,6,1,82,62,38,29.84,29.61,30,11,30,0.00
2013-1-30,29,18,3,12,4,-7,67,55,44,30.30,30.15,21,6,21,0.00
2013-1-31,39,22,6,21,11,0,79,63,40,30.43,30.29,19,6,19,0.00
2013-2-1,38,22,8,20,11,1,79,65,43,30.46,30.32,14,5,14,0.00
2013-2-2,40,22,8,19,11,0,79,63,35,30.62,30.46,14,3,14,0.00
2013-2-3,36,22,8,21,13,2,83,68,47,30.53,30.18,14,1,14,0.00
2013-2-4,43,25,10,22,14,4,84,64,31,30.27,30.10,20,2,20,0.00
2013-2-5,44,26,11,21,12,3,77,59,31,30.27,30.11,12,2,12,0.00
2013-2-6,41,27,10,26,16,5,83,65,38,30.12,29.96,14,3,14,0.00
2013-2-7,42,28,16,20,15,9,78,60,28,30.19,30.07,13,3,13,0.00
2013-2-8,46,27,12,24,17,7,85,67,32,30.19,29.80,33,9,33,0.00
2013-2-9,32,24,16,24,16,7,86,71,44,29.79,29.48,35,14,35,0.00
2013-2-10,34,23,12,13,7,-1,72,52,31,30.00,29.69,24,5,24,0.00
2013-2-11,32,21,10,16,9,-1,83,63,24,30.12,29.95,26,6,26,0.00
2013-2-12,34,18,4,8,2,-5,71,52,25,30.33,30.12,14,4,14,0.00
2013-2-13,39,21,3,14,7,-4,76,55,32,30.34,30.20,16,4,16,0.00
2013-2-14,39,23,6,16,8,0,80,55,28,30.33,30.19,30,8,30,0.00
2013-2-15,35,23,11,10,6,2,68,49,26,30.49,30.33,36,10,36,0.00
2013-2-16,44,24,6,13,7,-2,73,51,24,30.57,30.28,16,4,16,0.00
2013-2-17,46,26,6,12,6,-1,75,46,18,30.28,29.80,22,5,26,0.00
2013-2-18,38,25,13,13,2,-7,71,40,15,30.20,29.80,35,8,35,0.00
2013-2-19,38,21,2,10,2,-6,72,48,22,30.26,29.91,14,3,14,0.00
2013-2-20,31,22,13,28,16,4,88,76,59,29.90,29.55,20,-8,20,0.02
2013-2-21,36,22,10,23,14,6,86,72,51,29.93,29.63,16,4,16,0.01
2013-2-22,34,22,14,20,13,4,79,68,47,30.06,29.89,22,5,22,0.00
2013-2-23,34,21,5,17,7,-4,83,56,33,30.14,29.80,16,5,16,0.00
2013-2-24,32,21,10,20,10,3,89,66,38,30.06,29.76,34,6,34,0.03
2013-2-25,42,24,9,8,4,-6,69,46,16,30.14,29.97,18,5,18,0.00
2013-2-26,32,20,7,13,6,0,75,55,33,30.22,29.81,32,8,32,0.00
2013-2-27,36,21,7,6,0,-4,62,42,24,30.40,30.22,22,7,22,0.00
2013-2-28,41,25,6,7,2,-6,60,38,17,30.45,30.31,30,8,30,0.00
2013-3-1,46,33,20,17,13,7,64,45,27,30.41,30.26,34,13,34,0.00
2013-3-2,52,34,15,20,16,9,81,52,27,30.45,30.18,16,5,16,0.00
2013-3-3,57,36,16,24,18,10,81,53,21,30.18,29.72,35,7,35,0.00
2013-3-4,52,32,21,36,21,7,92,68,20,30.14,29.69,43,8,43,0.04
2013-3-5,49,29,10,15,9,4,78,48,20,30.40,30.15,16,4,16,0.00
2013-3-6,58,37,19,19,13,7,73,43,14,30.27,29.92,31,4,31,0.00
2013-3-7,61,39,20,18,11,3,69,39,10,30.00,29.85,26,4,26,0.00
2013-3-8,52,35,19,31,20,9,92,58,23,29.90,29.61,39,9,39,0.00
2013-3-9,32,28,24,28,24,17,92,86,61,29.98,29.53,30,5,30,0.08
2013-3-10,35,22,3,27,17,-2,92,80,68,30.32,29.98,19,3,19,0.08
2013-3-11,43,30,14,27,20,10,87,68,42,30.32,30.08,18,3,18,0.01
2013-3-12,54,38,25,28,22,18,78,55,28,30.20,30.09,19,2,19,0.00
2013-3-13,60,40,23,27,20,16,82,49,20,30.31,30.16,24,3,24,0.00
2013-3-14,67,46,28,22,15,-2,74,36,7,30.29,30.08,27,4,27,0.00
2013-3-15,66,48,28,21,16,7,61,32,10,30.12,29.77,39,5,39,0.00
2013-3-16,54,38,27,36,24,15,90,61,23,29.82,29.64,39,5,39,0.08
2013-3-17,55,36,27,38,23,4,94,66,14,29.80,29.55,50,10,50,0.02
2013-3-18,51,36,21,17,6,-4,70,35,11,29.94,29.79,48,11,48,0.00
2013-3-19,50,34,19,15,6,-2,66,35,12,30.19,29.94,26,6,26,0.00
2013-3-20,55,35,16,24,12,4,70,43,18,30.21,29.85,30,3,30,0.00
2013-3-21,56,38,27,29,20,9,82,52,18,29.85,29.47,46,9,46,0.00
2013-3-22,51,34,17,14,7,-8,69,37,10,29.73,29.52,43,10,43,0.00
2013-3-23,27,23,12,6,-1,-10,62,36,19,30.17,29.59,36,13,36,0.00
2013-3-24,32,19,3,2,-4,-8,70,40,20,30.28,30.11,33,3,33,0.00
2013-3-25,41,24,6,0,-6,-16,63,30,9,30.34,30.19,15,2,15,0.00
2013-3-26,57,37,18,13,5,-12,43,28,15,30.27,29.91,36,7,36,0.00
2013-3-27,63,44,23,21,13,7,58,31,13,29.95,29.79,28,6,28,0.00
2013-3-28,63,46,31,22,14,10,48,30,16,29.95,29.82,31,4,31,0.00
2013-3-29,62,45,26,24,18,14,62,37,19,30.03,29.90,25,4,31,0.00
2013-3-30,62,45,26,23,19,15,67,39,18,30.07,29.85,30,5,30,0.00
2013-3-31,65,47,29,25,17,5,72,35,11,29.96,29.76,20,2,20,0.00
2013-4-1,66,48,32,23,15,6,49,29,10,29.87,29.63,32,7,32,0.00
2013-4-2,60,40,24,32,18,6,92,49,13,29.87,29.59,31,4,31,0.00
2013-4-3,59,42,27,36,24,10,94,57,15,30.04,29.87,29,3,29,0.01
2013-4-4,66,47,26,21,16,10,66,34,12,30.12,29.88,24,4,24,0.00
2013-4-5,66,50,35,30,17,9,61,29,12,29.91,29.58,39,10,39,0.00
2013-4-6,64,48,31,32,24,13,80,43,20,29.77,29.60,22,5,22,0.00
2013-4-7,66,48,31,27,19,7,70,37,10,29.69,29.49,37,7,37,0.00
2013-4-8,63,45,27,25,18,11,62,37,16,29.54,29.14,54,10,56,0.00
2013-4-9,45,31,22,31,25,20,92,81,43,29.80,29.19,32,9,32,0.02
2013-4-10,40,29,21,32,22,12,91,78,48,29.95,29.80,26,4,26,0.09
2013-4-11,52,35,21,28,19,10,75,53,34,29.94,29.78,29,6,29,0.00
2013-4-12,57,40,28,27,21,12,80,52,18,29.86,29.73,27,7,27,0.00
2013-4-13,62,46,25,29,21,13,82,43,16,29.83,29.29,39,12,39,0.00
2013-4-14,58,45,33,35,26,18,92,52,23,29.44,29.24,41,12,41,0.02
2013-4-15,62,50,36,29,24,16,70,39,20,29.45,29.32,47,13,47,0.00
2013-4-16,68,52,38,21,14,3,47,25,9,29.48,29.30,55,19,55,0.00
2013-4-17,49,40,26,32,18,9,70,43,22,29.71,29.33,40,15,40,0.00
2013-4-18,37,28,21,17,3,-4,70,37,18,30.26,29.71,38,15,38,0.00
2013-4-19,56,36,13,15,7,-1,61,33,15,30.34,29.96,24,5,24,0.00
2013-4-20,50,40,29,36,22,15,86,52,28,29.96,29.74,29,5,29,0.08
2013-4-21,60,44,26,28,19,8,85,45,15,30.07,29.84,23,4,23,0.00
2013-4-22,69,48,29,32,20,12,79,39,13,29.89,29.55,32,8,32,0.00
2013-4-23,46,34,26,30,14,-7,87,50,15,30.09,29.57,46,6,46,0.01
2013-4-24,54,37,21,15,8,2,59,34,15,30.18,30.04,32,4,32,0.00
2013-4-25,66,46,25,33,20,8,63,40,16,30.11,29.74,40,9,40,0.00
2013-4-26,62,46,30,34,26,14,87,50,16,30.10,29.84,36,4,36,0.00
2013-4-27,68,45,29,29,21,5,80,49,9,30.14,29.91,13,5,16,0.00
2013-4-28,75,54,32,23,16,11,50,25,9,29.94,29.63,13,4,13,0.00
2013-4-29,68,53,40,26,22,19,47,32,15,29.68,29.52,13,3,13,0.00
2013-4-30,75,58,37,28,20,12,59,27,10,29.47,29.35,40,12,40,0.00
2013-5-1,67,51,29,29,18,-1,57,30,8,30.05,29.41,46,17,46,0.00
2013-5-2,52,36,19,14,7,0,73,36,13,30.39,30.05,27,4,27,0.00
2013-5-3,65,44,21,17,11,2,64,30,10,30.34,29.84,20,3,20,0.00
2013-5-4,69,48,28,21,15,5,57,30,9,29.90,29.71,35,6,35,0.00
2013-5-5,63,48,32,31,22,17,67,39,19,29.93,29.80,24,3,24,0.00
2013-5-6,54,45,38,42,36,30,90,71,41,29.87,29.70,30,3,30,0.24
2013-5-7,64,45,32,42,34,24,95,72,25,29.93,29.73,22,3,24,0.02
2013-5-8,50,43,36,40,34,26,91,73,48,29.91,29.74,45,6,45,0.08
2013-5-9,50,41,33,36,32,28,92,72,46,30.08,29.89,28,7,28,0.00
2013-5-10,60,46,29,35,28,22,88,55,26,30.18,30.01,33,5,33,0.00
2013-5-11,67,51,34,35,28,19,80,47,17,30.20,30.03,32,4,32,0.00
2013-5-12,72,55,33,37,31,23,87,47,17,30.13,29.92,21,3,21,0.00
2013-5-13,80,59,38,40,32,21,76,41,12,30.03,29.81,27,4,27,0.00
2013-5-14,78,58,42,48,37,29,82,52,17,29.84,29.62,33,6,33,0.00
2013-5-15,76,54,43,49,43,31,91,69,20,29.73,29.60,32,1,32,0.01
2013-5-16,74,56,38,46,36,27,93,56,20,29.76,29.61,30,2,30,0.01
2013-5-17,79,59,39,35,22,3,74,32,8,29.72,29.56,29,6,29,0.00
2013-5-18,70,56,43,32,24,15,62,32,14,29.65,29.47,33,10,33,0.00
2013-5-19,62,44,34,38,32,22,82,64,27,29.78,29.59,27,3,27,0.10
2013-5-20,66,46,31,40,30,22,86,60,20,29.85,29.73,28,4,28,0.01
2013-5-21,70,52,33,36,29,19,87,49,15,29.89,29.65,21,2,21,0.00
2013-5-22,79,59,37,35,27,16,73,36,10,29.70,29.51,31,5,31,0.00
2013-5-23,81,61,37,35,26,17,66,32,10,29.71,29.54,36,8,36,0.00
2013-5-24,79,63,44,37,23,16,62,26,10,29.71,29.59,33,10,33,0.00
2013-5-25,80,62,41,29,20,11,55,24,8,29.72,29.59,33,10,33,0.00
2013-5-26,80,63,47,29,20,10,43,22,8,29.68,29.52,36,8,36,0.00
2013-5-27,76,59,41,27,19,13,49,23,9,29.61,29.44,31,10,31,0.00
2013-5-28,73,58,40,27,19,6,51,25,9,29.54,29.31,32,7,32,0.00
2013-5-29,68,55,44,34,26,17,55,34,17,29.49,29.26,29,6,29,0.00
2013-5-30,76,57,37,30,21,10,63,31,9,29.61,29.46,44,14,44,0.00
2013-5-31,73,55,38,30,18,6,62,28,9,29.80,29.57,44,10,44,0.00
2013-6-1,75,56,34,32,19,10,50,28,10,29.92,29.80,19,4,19,0.00
2013-6-2,83,59,35,35,27,20,66,34,10,29.87,29.58,30,2,30,0.00
2013-6-3,82,60,40,40,33,26,68,40,14,29.65,29.50,55,7,55,0.00
2013-6-4,74,56,41,41,35,30,68,48,23,29.70,29.63,28,4,28,0.00
2013-6-5,80,62,40,46,33,20,77,40,13,29.73,29.54,40,4,40,0.00
2013-6-6,79,59,37,41,34,24,87,46,14,29.77,29.63,29,4,29,0.00
2013-6-7,74,58,41,43,36,30,71,47,22,29.79,29.60,40,4,40,0.00
2013-6-8,84,62,41,42,35,26,81,43,13,29.66,29.52,29,3,29,0.00
2013-6-9,88,64,41,44,35,24,80,40,10,29.72,29.56,17,4,17,0.00
2013-6-10,93,72,50,43,32,22,52,27,8,29.67,29.46,29,5,29,0.00
2013-6-11,87,69,46,41,28,14,65,28,7,29.66,29.50,38,10,38,0.00
2013-6-12,88,68,44,43,28,20,54,26,10,29.78,29.64,30,8,30,0.00
2013-6-13,89,66,45,48,34,24,60,33,13,29.75,29.55,49,8,49,0.00
2013-6-14,87,71,54,47,37,16,67,33,11,29.70,29.42,33,6,33,0.00
2013-6-15,87,64,43,45,35,20,77,39,13,29.75,29.53,44,4,44,0.00
2013-6-16,81,60,46,52,40,33,74,49,19,29.81,29.70,33,6,33,0.05
2013-6-17,81,60,40,46,40,31,87,54,17,29.89,29.74,33,3,33,0.00
2013-6-18,81,62,44,52,42,36,77,51,22,29.83,29.58,31,5,31,0.00
2013-6-19,85,63,40,39,27,12,82,35,7,29.66,29.50,35,7,35,0.00
2013-6-20,86,64,42,33,22,14,48,24,7,29.65,29.54,29,7,29,0.00
2013-6-21,83,64,40,33,24,18,61,25,11,29.70,29.55,32,8,32,0.00
2013-6-22,81,64,45,34,25,14,61,26,8,29.63,29.48,31,8,31,0.00
2013-6-23,86,65,40,32,25,14,65,26,9,29.67,29.47,34,6,34,0.00
2013-6-24,82,63,43,37,23,12,60,27,8,29.60,29.51,36,9,36,0.00
2013-6-25,85,68,46,39,27,18,50,24,12,29.66,29.54,18,5,18,0.00
2013-6-26,90,71,51,44,35,30,57,30,12,29.75,29.61,15,4,15,0.00
2013-6-27,95,74,52,49,37,27,62,30,9,29.80,29.65,27,5,28,0.00
2013-6-28,88,70,56,49,44,37,62,41,19,29.83,29.67,33,5,33,0.00
2013-6-29,84,65,49,52,46,37,84,55,24,29.84,29.69,33,4,33,0.00
2013-6-30,83,60,45,55,48,42,92,69,28,29.93,29.70,28,3,28,0.29
2013-7-1,80,61,47,57,49,39,95,71,23,29.95,29.80,29,3,29,0.13
2013-7-2,82,61,47,54,48,40,92,67,23,29.92,29.68,28,3,28,0.06
2013-7-3,80,61,45,53,47,38,91,64,24,29.81,29.64,27,2,27,0.01
2013-7-4,86,65,49,52,45,33,83,54,19,29.72,29.51,22,3,22,0.07
2013-7-5,77,60,52,55,50,45,88,70,36,29.68,29.52,24,3,24,0.00
2013-7-6,85,63,49,54,49,45,91,65,27,29.74,29.57,23,2,23,0.00
2013-7-7,88,66,53,55,50,41,86,63,20,29.72,29.58,20,2,20,0.00
2013-7-8,82,67,54,56,52,44,90,63,29,29.78,29.69,25,4,25,0.01
2013-7-9,90,71,55,53,47,36,79,47,16,29.83,29.68,41,5,41,0.00
2013-7-10,86,67,53,55,49,39,79,55,26,29.82,29.65,34,6,34,0.00
2013-7-11,84,67,49,55,49,45,86,56,29,29.81,29.58,18,3,18,0.00
2013-7-12,84,68,56,57,51,47,77,57,29,29.68,29.56,27,6,27,0.00
2013-7-13,85,68,53,58,52,44,88,59,28,29.75,29.64,33,5,33,0.01
2013-7-14,85,64,54,59,55,48,92,77,28,29.81,29.63,29,4,29,0.90
2013-7-15,70,61,54,59,54,47,93,79,58,29.84,29.74,20,2,20,0.03
2013-7-16,78,62,48,53,48,43,89,63,33,29.91,29.79,19,2,19,0.00
2013-7-17,79,64,47,52,47,39,86,58,25,29.98,29.78,16,2,16,0.00
2013-7-18,83,63,46,58,51,42,89,69,33,29.90,29.64,32,4,32,0.32
2013-7-19,83,63,51,59,54,49,93,76,32,29.83,29.69,23,1,24,0.31
2013-7-20,82,65,52,60,54,48,93,71,31,29.79,29.57,23,2,23,0.01
2013-7-21,86,68,53,57,50,37,86,58,20,29.69,29.53,26,2,26,0.00
2013-7-22,88,69,51,55,48,36,88,53,17,29.70,29.56,20,3,20,0.00
2013-7-23,91,69,50,53,46,31,82,49,13,29.72,29.59,34,3,34,0.00
2013-7-24,83,68,56,55,48,38,77,52,24,29.77,29.64,48,4,48,0.00
2013-7-25,84,65,51,60,53,46,93,69,28,29.85,29.64,20,3,20,0.03
2013-7-26,79,63,49,58,51,42,92,67,31,29.92,29.79,25,4,25,0.03
2013-7-27,76,62,48,56,51,43,93,69,43,29.91,29.69,24,4,24,0.06
2013-7-28,68,58,52,59,54,49,94,87,65,29.74,29.62,16,2,16,0.24
2013-7-29,72,59,50,58,52,46,95,80,52,29.93,29.73,23,3,23,0.33
2013-7-30,82,64,45,54,46,38,92,59,23,30.04,29.88,12,2,12,0.01
2013-7-31,85,69,49,56,46,37,79,49,19,29.98,29.74,12,3,12,0.00
2013-8-1,78,64,50,57,51,45,88,65,33,29.81,29.68,27,3,27,0.00
2013-8-2,82,65,50,56,50,44,94,63,30,29.79,29.67,29,5,29,0.01
2013-8-3,85,66,54,55,50,40,88,62,23,29.81,29.67,33,3,33,0.00
2013-8-4,86,65,48,56,50,44,90,63,25,29.87,29.71,24,4,24,0.01
2013-8-5,79,64,52,57,52,45,93,70,37,29.83,29.69,27,4,27,0.06
2013-8-6,74,63,52,58,52,45,93,69,39,29.79,29.67,25,4,25,0.03
2013-8-7,68,56,50,57,51,47,93,83,56,29.81,29.71,14,2,14,0.06
2013-8-8,76,56,48,55,49,44,94,80,40,29.92,29.75,23,3,23,0.14
2013-8-9,75,57,41,54,46,38,93,70,35,29.99,29.90,37,3,37,0.01
2013-8-10,79,56,44,53,46,41,92,73,27,30.09,29.85,33,3,33,0.37
2013-8-11,78,59,43,54,46,39,95,68,25,30.06,29.85,15,2,15,0.00
2013-8-12,74,60,46,54,48,42,88,66,39,29.91,29.77,26,5,26,0.02
2013-8-13,75,59,44,55,48,41,92,69,36,29.95,29.83,28,5,28,0.02
2013-8-14,79,61,43,53,45,39,89,59,26,29.96,29.77,24,4,24,0.00
2013-8-15,82,64,43,50,40,32,80,46,17,29.91,29.76,21,3,21,0.00
2013-8-16,86,66,44,48,40,30,78,44,14,29.89,29.74,21,3,21,0.00
2013-8-17,87,69,50,50,41,27,75,43,14,29.86,29.65,16,2,16,0.00
2013-8-18,85,66,48,50,44,39,79,50,23,29.81,29.69,30,4,30,0.00
2013-8-19,87,65,48,54,47,40,82,57,20,29.85,29.66,38,4,38,0.05
2013-8-20,86,67,46,52,46,36,89,53,17,29.82,29.66,22,3,22,0.00
2013-8-21,85,67,50,52,46,40,82,51,21,29.80,29.65,29,3,29,0.00
2013-8-22,83,68,52,55,50,44,86,56,27,29.83,29.65,31,4,31,0.00
2013-8-23,81,66,52,55,46,32,91,54,18,29.78,29.58,23,5,23,0.01
2013-8-24,80,65,54,56,48,40,78,57,28,29.80,29.66,22,4,22,0.00
2013-8-25,76,64,53,60,53,49,90,71,43,29.91,29.80,24,2,24,0.02
2013-8-26,82,67,52,59,52,45,93,63,30,29.93,29.71,16,2,16,0.00
2013-8-27,86,68,50,55,48,38,85,54,21,29.82,29.64,28,3,28,0.00
2013-8-28,86,68,47,54,45,30,88,49,15,29.77,29.66,18,2,18,0.00
2013-8-29,88,68,49,52,45,38,77,47,18,29.85,29.71,21,3,24,0.00
2013-8-30,86,72,57,54,45,36,74,43,18,29.83,29.64,21,3,21,0.00
2013-8-31,86,69,55,52,47,41,76,48,24,29.70,29.57,32,4,32,0.00
2013-9-1,85,68,52,55,49,40,80,55,26,29.78,29.64,18,3,18,0.00
2013-9-2,84,67,54,57,51,45,86,60,29,29.81,29.66,29,4,29,0.01
2013-9-3,85,67,53,59,50,42,83,58,23,29.83,29.68,30,2,30,0.01
2013-9-4,86,69,52,56,48,37,86,53,18,29.89,29.75,21,2,21,0.00
2013-9-5,86,68,47,49,44,36,85,47,18,29.90,29.71,18,2,18,0.00
2013-9-6,85,68,48,50,42,37,77,42,19,29.87,29.65,21,3,21,0.00
2013-9-7,83,68,48,49,42,32,75,44,18,29.80,29.62,27,3,27,0.00
2013-9-8,82,66,50,52,45,39,85,51,22,29.70,29.49,21,3,21,0.00
2013-9-9,79,65,53,53,46,42,74,53,27,29.63,29.45,25,3,25,0.00
2013-9-10,73,58,47,54,49,42,93,73,37,29.83,29.58,28,4,28,0.14
2013-9-11,68,58,52,58,53,48,94,82,59,29.84,29.78,24,1,24,0.14
2013-9-12,74,59,49,57,52,46,93,80,47,29.92,29.78,32,3,32,0.07
2013-9-13,60,56,52,54,52,49,95,86,73,29.81,29.71,27,7,27,0.27
2013-9-14,70,53,46,54,48,44,94,84,48,29.82,29.67,36,1,36,0.19
2013-9-15,70,55,44,55,48,42,95,79,51,29.95,29.82,14,1,14,0.10
2013-9-16,72,56,45,55,49,43,93,79,46,29.97,29.81,23,1,23,0.03
2013-9-17,74,59,44,54,48,41,93,70,37,29.92,29.64,17,2,17,0.01
2013-9-18,71,56,50,56,49,41,94,78,41,29.78,29.57,35,5,35,0.20
2013-9-19,69,54,42,55,49,40,95,84,50,29.84,29.70,14,1,14,0.10
2013-9-20,72,56,40,51,43,38,92,67,29,29.94,29.76,11,2,11,0.00
2013-9-21,76,57,40,50,43,36,91,63,30,29.86,29.61,20,2,20,0.00
2013-9-22,62,52,40,53,46,37,90,81,62,29.64,29.33,42,5,48,0.38
2013-9-23,60,48,38,40,34,28,92,63,31,29.99,29.45,34,8,34,0.01
2013-9-24,67,49,30,42,34,26,86,60,27,30.10,29.83,9,2,11,0.00
2013-9-25,73,54,33,43,34,30,91,54,21,29.83,29.46,29,6,32,0.00
2013-9-26,74,56,36,35,29,20,77,40,15,29.56,29.42,32,6,32,0.00
2013-9-27,60,48,34,45,33,20,75,56,32,29.89,29.44,43,12,43,0.00
2013-9-28,62,44,26,29,23,16,79,47,18,30.16,29.89,13,3,13,0.00
2013-9-29,68,49,28,32,27,23,82,48,19,30.12,29.87,20,3,20,0.00
2013-9-30,74,55,36,37,29,22,67,42,16,29.92,29.66,13,3,13,0.00
2013-10-1,76,56,34,40,31,22,85,44,18,29.83,29.64,24,6,24,0.00
2013-10-2,72,56,35,29,24,18,65,32,14,29.77,29.58,24,6,24,0.00
2013-10-3,71,51,30,31,25,20,72,40,18,29.67,29.46,35,7,35,0.00
2013-10-4,53,42,31,31,16,2,67,38,17,30.03,29.45,34,10,34,0.00
2013-10-5,58,40,22,18,12,5,67,36,13,30.22,30.03,20,3,20,0.00
2013-10-6,66,43,19,22,14,8,68,36,13,30.32,30.14,12,2,12,0.00
2013-10-7,71,48,27,28,22,17,73,41,15,30.19,29.90,12,1,12,0.00
2013-10-8,71,48,31,28,23,20,71,42,16,29.92,29.65,30,4,30,0.00
2013-10-9,67,48,30,31,23,16,71,43,14,29.79,29.65,35,6,35,0.00
2013-10-10,62,43,33,37,31,22,89,66,26,29.76,29.42,52,13,52,0.07
2013-10-11,56,40,23,31,26,18,87,59,32,30.00,29.68,14,2,14,0.00
2013-10-12,60,42,24,32,26,18,88,56,22,30.10,29.93,21,3,21,0.00
2013-10-13,67,46,29,42,31,22,85,60,22,30.07,29.76,33,7,33,0.09
2013-10-14,57,44,32,36,26,18,77,52,24,29.95,29.70,32,10,32,0.00
2013-10-15,52,39,25,32,24,19,88,60,29,30.06,29.91,23,2,23,0.02
2013-10-16,47,36,27,36,26,17,93,71,37,30.09,29.95,24,4,24,0.14
2013-10-17,52,36,21,27,21,17,87,59,27,30.16,29.91,18,2,18,0.00
2013-10-18,50,37,24,28,14,5,78,45,17,30.15,29.93,34,9,34,0.00
2013-10-19,57,38,21,20,14,3,67,40,20,30.19,29.98,18,3,18,0.00
2013-10-20,57,40,22,24,19,14,76,46,21,30.00,29.82,20,4,20,0.00
2013-10-21,58,42,24,28,19,10,86,45,17,30.09,29.92,20,3,20,0.00
2013-10-22,61,41,24,22,17,13,68,42,17,30.23,30.07,12,3,12,0.00
2013-10-23,64,42,22,24,19,14,75,44,16,30.18,30.02,12,2,12,0.00
2013-10-24,64,42,26,24,20,16,72,45,18,30.18,30.02,18,2,18,0.00
2013-10-25,58,44,33,39,30,21,86,59,36,30.14,29.96,21,3,21,0.03
2013-10-26,62,44,32,41,30,21,92,64,23,30.19,30.07,15,3,15,0.01
2013-10-27,62,42,26,32,25,20,84,56,25,30.11,29.77,21,5,21,0.00
2013-10-28,62,43,25,32,22,15,87,51,17,29.85,29.68,31,7,31,0.00
2013-10-29,54,42,32,34,25,17,83,53,23,29.83,29.69,35,14,39,0.00
2013-10-30,48,37,27,32,18,14,83,48,28,29.81,29.69,31,8,31,0.00
2013-10-31,50,36,28,18,16,13,60,45,23,30.00,29.81,31,9,31,0.00
2013-11-1,51,37,28,21,17,14,65,47,23,30.24,29.99,33,10,33,0.00
2013-11-2,56,34,14,20,14,7,78,47,21,30.36,30.02,11,2,11,0.00
2013-11-3,55,37,20,24,18,10,77,49,28,30.02,29.67,40,10,40,0.00
2013-11-4,56,36,17,32,18,10,82,53,16,29.88,29.71,26,6,26,0.00
2013-11-5,39,31,18,33,18,-2,92,63,25,30.23,29.69,22,6,22,0.02
2013-11-6,46,26,8,12,5,-2,69,44,23,30.60,30.23,18,3,18,0.00
2013-11-7,52,31,14,16,12,6,74,48,22,30.65,30.27,10,3,10,0.00
2013-11-8,60,36,17,18,13,7,73,43,16,30.27,30.00,15,3,15,0.00
2013-11-9,60,38,16,19,14,8,74,43,16,30.22,30.09,14,4,14,0.00
2013-11-10,59,37,20,20,15,9,73,44,18,30.33,30.18,11,2,11,0.00
2013-11-11,60,39,18,19,14,8,75,40,15,30.38,30.24,14,3,14,0.00
2013-11-12,57,37,20,19,12,6,66,40,15,30.53,30.38,11,2,11,0.00
2013-11-13,54,35,17,26,16,5,72,49,25,30.49,30.10,12,2,12,0.00
2013-11-14,55,37,25,25,18,11,69,48,23,30.10,29.83,18,3,18,0.00
2013-11-15,53,33,15,33,21,8,92,65,25,29.83,29.56,33,7,33,0.04
2013-11-16,46,33,22,34,26,20,93,78,43,29.61,29.47,37,7,37,0.05
2013-11-17,49,35,22,27,23,17,84,64,33,30.14,29.59,14,4,14,0.00
2013-11-18,50,32,17,25,19,13,87,64,28,30.31,30.14,9,2,9,0.00
2013-11-19,48,32,18,25,19,13,88,63,32,30.18,29.88,13,1,13,0.00
2013-11-20,50,35,21,32,25,16,87,68,36,29.96,29.76,16,3,16,0.00
2013-11-21,50,38,31,34,30,22,93,75,35,30.04,29.82,22,4,22,0.00
2013-11-22,37,29,25,33,26,23,92,90,83,30.39,30.04,14,1,14,0.12
2013-11-23,34,28,26,29,26,24,93,89,77,30.44,30.29,6,0,6,0.08
2013-11-24,36,26,20,29,22,17,92,88,73,30.30,30.04,8,1,8,0.10
2013-11-25,31,21,9,26,17,3,89,83,72,30.51,30.05,11,3,11,0.16
2013-11-26,18,5,-4,9,0,-10,84,78,67,30.89,30.51,4,0,4,0.00
2013-11-27,13,-1,-10,4,-7,-17,81,74,64,30.97,30.81,0,0,0,0.00
2013-11-28,17,1,-9,6,-6,-15,82,73,59,30.93,30.81,0,0,0,0.00
2013-11-29,13,-1,-11,7,-7,-18,87,74,69,31.01,30.91,2,0,2,0.00
2013-11-30,17,1,-8,9,-5,-14,84,76,66,31.00,30.85,2,0,2,0.00
2013-12-1,15,0,-10,7,-6,-17,81,75,67,30.95,30.77,5,0,5,0.00
2013-12-2,21,5,-5,11,-1,-11,85,77,65,30.77,30.29,2,0,2,0.01
2013-12-3,27,13,-1,20,8,-6,88,80,66,30.29,29.81,10,0,10,0.04
2013-12-4,36,26,-1,30,18,-10,92,71,48,29.88,29.49,33,17,39,0.03
2013-12-5,16,1,-11,3,-7,-19,82,69,56,30.33,29.87,8,1,8,0.00
2013-12-6,14,-2,-16,2,-10,-24,78,70,57,30.64,30.33,7,1,7,0.00
2013-12-7,17,4,-11,10,-3,-18,85,72,57,30.64,30.06,7,1,7,0.00
2013-12-8,24,13,-4,17,1,-13,89,62,39,30.19,29.91,27,7,27,0.01
2013-12-9,10,-6,-18,-4,-16,-28,71,60,49,31.01,30.18,15,3,15,0.00
2013-12-10,7,-8,-20,-6,-17,-30,73,63,52,31.07,30.92,8,2,8,0.00
2013-12-11,13,-3,-13,0,-11,-21,76,67,53,31.19,31.01,6,1,6,0.00
2013-12-12,16,-3,-15,4,-10,-22,77,70,58,31.19,30.78,14,2,14,0.00
2013-12-13,14,-1,-14,4,-8,-20,84,73,63,30.78,30.52,6,1,6,0.00
2013-12-14,25,6,-6,12,-2,-12,82,72,54,30.90,30.69,13,4,13,0.00
2013-12-15,25,6,-6,12,-1,-12,81,73,54,30.88,30.79,10,2,10,0.00
2013-12-16,27,8,-5,16,1,-11,84,75,61,30.92,30.79,10,1,10,0.00
2013-12-17,29,7,-7,17,1,-13,85,77,56,31.01,30.80,7,1,7,0.00
2013-12-18,18,6,-8,10,0,-14,85,76,68,30.80,30.38,6,1,6,0.00
2013-12-19,28,10,-1,16,4,-7,88,75,59,30.38,30.07,11,1,11,0.00
2013-12-20,25,10,1,16,5,-4,86,79,64,30.12,29.97,8,2,8,0.00
2013-12-21,25,12,-6,17,6,-12,86,78,64,30.10,29.86,12,2,12,0.00
2013-12-22,22,11,0,11,2,-7,82,67,54,30.59,30.10,15,5,15,0.00
2013-12-23,19,3,-8,8,-4,-14,82,73,59,30.95,30.58,9,1,9,0.00
2013-12-24,18,6,-8,9,-1,-14,81,71,62,30.91,30.64,20,3,20,0.00
2013-12-25,22,8,-6,9,-1,-13,84,68,46,30.85,30.75,13,3,13,0.00
2013-12-26,19,2,-12,7,-6,-19,82,72,58,30.96,30.85,7,1,7,0.00
2013-12-27,24,4,-10,12,-2,-17,83,73,57,31.01,30.77,7,1,7,0.00
2013-12-28,20,6,-6,16,0,-12,87,78,70,30.77,30.44,12,1,12,0.00
2013-12-29,30,15,-6,21,10,-13,89,80,61,30.44,30.28,9,2,9,0.10
2013-12-30,17,6,-11,12,1,-18,86,79,62,30.81,30.43,1,0,1,0.00
2013-12-31,11,-5,-13,4,-11,-20,85,74,66,30.95,30.78,5,1,5,0.00
2014-1-1,32,12,-6,18,2,-12,82,68,46,30.78,30.61,20,5,20,0.00
2014-1-2,29,7,-8,14,-1,-15,82,69,51,30.76,30.63,11,3,11,0.00